Location: Rumah Geringgi
(3.1667°N, 113.1667°E)
Time: 21:19:34
(UTC+00:00)

Cosmos 2082 Rocket - Pass Details

Date: 03 August 2024
Orbit: 833 x 852 km, 71.0° (Epoch: 19 September)

Event Time Altitude Azimuth Distance (km) Brightness Sun altitude
Rises 13:32:36 0° 327° (NNW) 3,371 6.0 -40.9°
Reaches altitude 10° 13:35:14 10° 318° (NW) 2,441 5.2 -41.5°
Enters shadow 13:37:03 19° 306° (NW) 1,873 4.5 -41.9°
